星链-1391 (STARLINK-1391 )

导读 | 豆包AI

STARLINK-1391是美国太空探索技术公司SpaceX星链星座中的一颗卫星,于2020年6月13日发射入轨,属于星链早期组网发射的卫星之一。星链项目旨在构建全球卫星互联网,该卫星承担低轨通信组网任务,为全球多地提供宽带互联网接入服务,是SpaceX大规模低轨卫星星座建设的组成部分。

基本信息
目录编号:
45750
目录名称:
STARLINK-1391
国际标识:
2020-038W
轨道中心:
EARTH
卫星名称:
星链-1391
卫星全名:
星链-1391 (STARLINK-1391 )
卫星状态:
已陨落 最后检测时间 2025-02-24
发射日期:
2020-06-13 UTC
国别 :
美国 (US)
星等 :
--
轨道信息
数据来源 国际轨道数据
星历时间: 2025-02-24T13:13:09+0800
轨道信息已过期403天
半长轴: 6509.363km
偏心率: 0.0010985
轨道倾角: 53.036°
近地点辐角 219.326°
升交点赤经 68.361°
平近点角 225.473°
近地点: 124.077km
远地点: 138.379km
周期: 87.110分钟
每日圈数: 16.530847
详细信息
固有亮度:
5
最大亮度:
2.5
卫星平台:
Starlink V1.0
覆盖范围:
全球
运营商:
太空探索技术公司
运营商所在国:
美国
制造商(研发单位):
太空探索技术公司
制造商所在国:
美国
使用方式:
暂无
卫星简介
星链(Starlink)计划是由太空探索技术公司(SpaceX)提出的一个巨型低轨卫星互联网星座项目,计划在2019年至2024年间在太空搭建由约1.2万颗卫星组成的“星链”网络,其中1584颗将部署在地球上空550千米处的近地轨道,并从2020年开始工作。该卫星仍在工作。